Location: Wishram
(45.6596°N, 120.9636°W)
Time: 03:58:36
(UTC+00:00)

Tiangong - Visible Passes

Search period start: 20 May 2026 00:00
Search period end: 30 May 2026 00:00
Orbit: 381 x 391 km, 41.5° (Epoch: 19 May)

Date Brightness Start Highest point End Pass type
(mag) Time Alt. Az. Time Alt. Az. Time Alt. Az.
20 May -0.6 04:59:58 10° SSW 05:02:05 20° S 05:02:05 20° S visible
21 May -0.8 05:36:44 10° WSW 05:38:39 27° SSW 05:38:39 27° SSW visible
22 May -1.1 04:37:37 10° SW 04:40:25 28° SSE 04:42:32 14° ESE visible
22 May 0.1 06:13:55 10° WSW 06:14:48 16° WSW 06:14:48 16° WSW visible
23 May -1.5 05:14:37 10° WSW 05:17:38 38° S 05:18:25 32° SE visible
24 May -1.3 04:15:23 10° WSW 04:18:20 34° S 04:21:16 10° ESE visible
24 May -0.9 05:51:54 10° WSW 05:54:04 29° SW 05:54:04 29° SW visible
25 May -1.5 04:52:31 10° WSW 04:55:32 38° S 04:57:22 19° ESE visible
25 May 0.7 06:29:26 10° WSW 06:29:35 11° WSW 06:29:35 11° WSW visible
26 May -1.0 05:29:52 10° WSW 05:32:41 28° SSW 05:32:48 28° S visible
27 May -1.2 04:30:23 10° WSW 04:33:20 34° S 04:35:58 12° SE visible
27 May 0.5 06:07:43 10° WSW 06:08:10 12° SW 06:08:10 12° SW visible
28 May -0.5 05:07:52 10° WSW 05:10:22 21° SSW 05:11:18 19° S visible
